Weather History for Lebanon, NH

Change the Weather History Date:

Sunday, February 10, 2013

  Actual Average Record
Temperature  
Mean Temperature 8 °F -  
Max Temperature 30 °F 30 °F 50 °F (1955)
Min Temperature -13 °F 5 °F -30 °F (1948)
Degree Days  
Heating Degree Days 56    
Moisture  
Dew Point -5 °F    
Average Humidity 67    
Maximum Humidity 87    
Minimum Humidity 24    
Precipitation  
Precipitation 0.00 in - - ()
Sea Level Pressure  
Sea Level Pressure 30.42 in    
Wind  
Wind Speed 0 mph (NNE)    
Max Wind Speed 5 mph    
Max Gust Speed -    
Visibility 10 miles    
Events      
Averages and records for this station are not official NWS values.
T = Trace of Precipitation, MM = Missing Value Source: NWS Daily Summary

Daily Weather History Graph

Daily Weather History Graph

Search for Another Location

Airport:

Trip Planner

Search our weather history database for the weather conditions in past years. The results will help you decide how hot, cold, wet, or windy it might be!

Date:

Astronomy

Feb. 10, 2013 Rise Set
Actual Time 6:54 AM EST 5:13 PM EST
Civil Twilight 6:24 AM EST 5:42 PM EST
Nautical Twilight 5:50 AM EST 6:16 PM EST
Astronomical Twilight 5:17 AM EST 6:50 PM EST
Moon 6:40 AM EST (2/10) 6:03 PM EST (2/10)
Length of Visible Light 11h 18m
Length of Day
10h 18m
New Moon, 0% of the Moon is Illuminated
Feb 10
New Moon
Feb 17
First Quarter
Feb 25
Full
Mar 4
Last Quarter
Mar 11
New

Hourly Weather History & Observations

Time (EST) Temp. Windchill Dew Point Humidity Pressure Visibility Wind Dir Wind Speed Gust Speed Precip Events Conditions
12:53 AM -2.9 °F - -9.0 °F 75% 30.35 in 10.0 mi Calm Calm - N/A   Clear
1:53 AM -2.9 °F - -8.0 °F 79% 30.36 in 10.0 mi Calm Calm - N/A   Clear
2:53 AM -8.0 °F - -11.0 °F 86% 30.38 in 10.0 mi Calm Calm - N/A   Clear
3:53 AM -9.9 °F - -15.0 °F 78% 30.38 in 10.0 mi Calm Calm - N/A   Clear
4:53 AM -7.1 °F - -13.0 °F 75% 30.40 in 10.0 mi Calm Calm - N/A   Clear
5:53 AM -9.9 °F - -15.0 °F 78% 30.43 in 10.0 mi Calm Calm - N/A   Clear
6:04 AM -11.2 °F - -16.6 °F 77% 30.36 in 2.5 mi Calm Calm - N/A   Haze
6:20 AM -13.0 °F - -18.4 °F 77% 30.37 in 4.0 mi Calm Calm - N/A   Haze
6:53 AM -11.0 °F - -17.0 °F 75% 30.46 in 10.0 mi Calm Calm - N/A   Clear
7:53 AM -9.0 °F - -11.9 °F 87% 30.49 in 10.0 mi Calm Calm - N/A   Clear
8:53 AM -0.9 °F - -5.1 °F 83% 30.50 in 10.0 mi Calm Calm - N/A   Clear
9:53 AM 6.1 °F - -2.0 °F 69% 30.50 in 10.0 mi Calm Calm - N/A   Clear
10:53 AM 14.0 °F - -0.0 °F 54% 30.51 in 10.0 mi Calm Calm - N/A   Clear
11:53 AM 18.0 °F - 1.0 °F 48% 30.49 in 10.0 mi Calm Calm - N/A   Clear
12:53 PM 25.0 °F - -2.0 °F 31% 30.45 in 10.0 mi Calm Calm - N/A   Clear
1:53 PM 26.1 °F - -0.0 °F 32% 30.41 in 10.0 mi Calm Calm - N/A   Clear
2:53 PM 30.0 °F - -2.9 °F 24% 30.40 in 10.0 mi Calm Calm - N/A   Clear
3:53 PM 21.9 °F - 3.0 °F 44% 30.41 in 10.0 mi Calm Calm - N/A   Clear
4:53 PM 24.1 °F 19.7 °F 5.0 °F 44% 30.39 in 10.0 mi NNE 3.5 mph - N/A   Partly Cloudy
5:53 PM 10.9 °F - 3.9 °F 73% 30.40 in 10.0 mi Calm Calm - N/A   Clear
6:53 PM 10.9 °F - 3.0 °F 70% 30.41 in 10.0 mi Calm Calm - N/A   Clear
7:53 PM 6.1 °F - 1.0 °F 80% 30.41 in 10.0 mi Calm Calm - N/A   Clear
8:53 PM 7.0 °F - 1.0 °F 77% 30.39 in 10.0 mi Calm Calm - N/A   Clear
9:53 PM 3.9 °F - -0.9 °F 80% 30.38 in 10.0 mi Calm Calm - N/A   Clear
11:53 PM 6.1 °F -2.8 °F 1.0 °F 80% 30.36 in 10.0 mi NNE 4.6 mph - N/A   Clear